LAN3550 SBGR-SBRJ

Flight info

Callsign LAN3550
Flight time 0h 34m
Altitude 25000
Route NIBRU UZ171 KEVUN
Aircraft A319/M-SDE3FGHIRWY/LB1

Departure

Time 2026-05-07 22:21
Airport São Paulo/Guarulhos–Governor André Franco Montoro International Airport (SBGR)

Arrival

Time 2026-05-07 22:55
Airport Santos Dumont Airport (SBRJ)
Time Latitude Longitude Altitude Speed Heading
2026-05-07 22:00 -23.42832 -46.47949 2446 ft 0 kts 262°
2026-05-07 22:07 -23.42829 -46.47929 2473 ft 4 kts 261°
2026-05-07 22:07 -23.42824 -46.47900 2473 ft 4 kts 248°
2026-05-07 22:08 -23.42811 -46.47879 2473 ft 4 kts 193°
2026-05-07 22:08 -23.42804 -46.47878 2473 ft 0 kts 170°
2026-05-07 22:15 -23.42837 -46.47871 2473 ft 13 kts 162°
2026-05-07 22:15 -23.42922 -46.47826 2473 ft 14 kts 168°
2026-05-07 22:15 -23.43025 -46.47808 2473 ft 16 kts 167°
2026-05-07 22:15 -23.43089 -46.47728 2473 ft 17 kts 75°
2026-05-07 22:16 -23.43058 -46.47601 2472 ft 18 kts 72°
2026-05-07 22:16 -23.43019 -46.47464 2472 ft 20 kts 75°
2026-05-07 22:16 -23.42980 -46.47315 2472 ft 21 kts 73°
2026-05-07 22:16 -23.42937 -46.47156 2472 ft 21 kts 73°
2026-05-07 22:17 -23.42855 -46.47162 2472 ft 20 kts 264°
2026-05-07 22:17 -23.42894 -46.47310 2472 ft 21 kts 253°
2026-05-07 22:17 -23.42935 -46.47464 2472 ft 22 kts 254°
2026-05-07 22:17 -23.42978 -46.47624 2472 ft 23 kts 254°
2026-05-07 22:18 -23.43022 -46.47791 2473 ft 23 kts 254°
2026-05-07 22:18 -23.43117 -46.48140 2474 ft 25 kts 252°
2026-05-07 22:18 -23.43166 -46.48322 2474 ft 24 kts 253°
2026-05-07 22:19 -23.43245 -46.48381 2475 ft 15 kts 161°
2026-05-07 22:19 -23.43297 -46.48365 2475 ft 2 kts 164°
2026-05-07 22:19 -23.43335 -46.48353 2475 ft 11 kts 163°
2026-05-07 22:19 -23.43412 -46.48324 2474 ft 13 kts 143°
2026-05-07 22:20 -23.43397 -46.48216 2474 ft 27 kts 73°
2026-05-07 22:20 -23.43295 -46.47841 2473 ft 77 kts 73°
2026-05-07 22:20 -23.43094 -46.47094 2472 ft 127 kts 73°
2026-05-07 22:20 -23.42800 -46.46008 2505 ft 168 kts 72°
2026-05-07 22:21 -23.42487 -46.44778 3054 ft 167 kts 72°
2026-05-07 22:21 -23.42154 -46.43564 3605 ft 168 kts 68°
2026-05-07 22:21 -23.41780 -46.42295 4004 ft 188 kts 70°
2026-05-07 22:21 -23.41792 -46.40764 4189 ft 219 kts 97°
2026-05-07 22:22 -23.42087 -46.39039 4509 ft 245 kts 96°
2026-05-07 22:22 -23.42408 -46.37123 4986 ft 269 kts 96°
2026-05-07 22:22 -23.42753 -46.35078 5782 ft 278 kts 97°
2026-05-07 22:22 -23.43106 -46.32997 6693 ft 282 kts 97°
2026-05-07 22:23 -23.43464 -46.30887 7577 ft 285 kts 97°
2026-05-07 22:23 -23.43825 -46.28745 8470 ft 289 kts 97°
2026-05-07 22:23 -23.44183 -46.26610 9339 ft 292 kts 97°
2026-05-07 22:23 -23.44550 -46.24417 10172 ft 297 kts 97°
2026-05-07 22:24 -23.44938 -46.22079 10459 ft 321 kts 97°
2026-05-07 22:24 -23.45341 -46.19638 10636 ft 344 kts 98°
2026-05-07 22:24 -23.45778 -46.17016 11017 ft 357 kts 98°
2026-05-07 22:24 -23.46229 -46.14336 11645 ft 361 kts 98°
2026-05-07 22:25 -23.46680 -46.11635 12274 ft 364 kts 98°
2026-05-07 22:25 -23.47135 -46.08912 12915 ft 367 kts 98°
2026-05-07 22:25 -23.47592 -46.06173 13552 ft 369 kts 98°
2026-05-07 22:25 -23.48050 -46.03409 14155 ft 371 kts 98°
2026-05-07 22:26 -23.48510 -46.00636 14651 ft 375 kts 99°
2026-05-07 22:26 -23.48977 -45.97821 15150 ft 378 kts 99°
2026-05-07 22:26 -23.49445 -45.94992 15678 ft 381 kts 98°
2026-05-07 22:26 -23.49763 -45.93073 16018 ft 383 kts 98°
2026-05-07 22:27 -23.50231 -45.90239 16516 ft 387 kts 98°
2026-05-07 22:27 -23.50705 -45.87346 17030 ft 390 kts 98°
2026-05-07 22:27 -23.51183 -45.84428 17560 ft 393 kts 98°
2026-05-07 22:27 -23.51829 -45.80482 18246 ft 398 kts 99°
2026-05-07 22:28 -23.52153 -45.78508 18567 ft 400 kts 99°
2026-05-07 22:28 -23.52646 -45.75507 18992 ft 405 kts 99°
2026-05-07 22:28 -23.53145 -45.72475 19406 ft 409 kts 99°
2026-05-07 22:28 -23.53649 -45.69406 19840 ft 414 kts 100°
2026-05-07 22:29 -23.54158 -45.66294 20245 ft 419 kts 100°
2026-05-07 22:29 -23.54671 -45.63161 20691 ft 422 kts 100°
2026-05-07 22:29 -23.55188 -45.59996 21127 ft 426 kts 101°
2026-05-07 22:29 -23.55703 -45.56806 21549 ft 429 kts 101°
2026-05-07 22:30 -23.56222 -45.53592 21939 ft 433 kts 101°
2026-05-07 22:30 -23.56740 -45.50339 22325 ft 437 kts 99°
2026-05-07 22:30 -23.56935 -45.47029 22694 ft 442 kts 89°
2026-05-07 22:30 -23.56618 -45.43684 23068 ft 446 kts 79°
2026-05-07 22:31 -23.55923 -45.40370 23435 ft 450 kts 77°
2026-05-07 22:31 -23.55210 -45.37041 23782 ft 453 kts 77°
2026-05-07 22:31 -23.54496 -45.33680 24103 ft 456 kts 78°
2026-05-07 22:31 -23.53787 -45.30311 24421 ft 458 kts 78°
2026-05-07 22:32 -23.53077 -45.26920 24742 ft 460 kts 78°
2026-05-07 22:32 -23.52359 -45.23506 24992 ft 463 kts 78°
2026-05-07 22:32 -23.51617 -45.20091 25058 ft 466 kts 75°
2026-05-07 22:32 -23.50606 -45.16774 25068 ft 467 kts 72°
2026-05-07 22:33 -23.49523 -45.13437 25060 ft 468 kts 71°
2026-05-07 22:33 -23.48400 -45.10057 25056 ft 468 kts 71°
2026-05-07 22:33 -23.47297 -45.06772 25054 ft 468 kts 70°
2026-05-07 22:33 -23.46176 -45.03440 25054 ft 469 kts 70°
2026-05-07 22:34 -23.45058 -45.00110 25053 ft 469 kts 71°
2026-05-07 22:34 -23.43947 -44.96773 25064 ft 468 kts 71°
2026-05-07 22:34 -23.42843 -44.93444 25065 ft 468 kts 71°
2026-05-07 22:34 -23.41743 -44.90115 25056 ft 468 kts 71°
2026-05-07 22:35 -23.40641 -44.86779 25052 ft 468 kts 71°
2026-05-07 22:35 -23.39542 -44.83448 25050 ft 467 kts 71°
2026-05-07 22:35 -23.38443 -44.80125 25053 ft 467 kts 71°
2026-05-07 22:35 -23.37337 -44.76791 25042 ft 467 kts 71°
2026-05-07 22:36 -23.36233 -44.73470 25043 ft 468 kts 71°
2026-05-07 22:36 -23.35108 -44.70097 25051 ft 467 kts 71°
2026-05-07 22:36 -23.34016 -44.66823 25044 ft 467 kts 71°
2026-05-07 22:36 -23.32908 -44.63498 25043 ft 467 kts 71°
2026-05-07 22:37 -23.31799 -44.60170 24972 ft 467 kts 71°
2026-05-07 22:37 -23.30690 -44.56854 24750 ft 467 kts 71°
2026-05-07 22:37 -23.29578 -44.53532 24517 ft 467 kts 70°
2026-05-07 22:37 -23.28464 -44.50212 24292 ft 467 kts 70°
2026-05-07 22:38 -23.27343 -44.46896 24066 ft 467 kts 70°
2026-05-07 22:38 -23.26218 -44.43577 23837 ft 468 kts 70°
2026-05-07 22:38 -23.25100 -44.40262 22828 ft 470 kts 70°
2026-05-07 22:38 -23.23973 -44.36902 21696 ft 473 kts 70°
2026-05-07 22:39 -23.22854 -44.33557 20840 ft 469 kts 70°
2026-05-07 22:39 -23.21748 -44.30249 20164 ft 460 kts 70°
2026-05-07 22:39 -23.20662 -44.27013 19465 ft 452 kts 70°
2026-05-07 22:39 -23.19592 -44.23832 18792 ft 444 kts 70°
2026-05-07 22:40 -23.18541 -44.20706 18069 ft 436 kts 69°
2026-05-07 22:40 -23.17512 -44.17652 17350 ft 427 kts 69°
2026-05-07 22:40 -23.16498 -44.14652 16673 ft 419 kts 69°
2026-05-07 22:40 -23.15504 -44.11717 16087 ft 410 kts 69°
2026-05-07 22:41 -23.14528 -44.08832 15483 ft 404 kts 68°
2026-05-07 22:41 -23.13551 -44.05941 14870 ft 398 kts 68°
2026-05-07 22:41 -23.12603 -44.03131 14254 ft 393 kts 69°
2026-05-07 22:41 -23.11669 -44.00362 13595 ft 389 kts 68°
2026-05-07 22:42 -23.10746 -43.97628 12931 ft 383 kts 68°
2026-05-07 22:42 -23.09835 -43.94935 12289 ft 376 kts 68°
2026-05-07 22:42 -23.08937 -43.92288 11662 ft 371 kts 68°
2026-05-07 22:42 -23.08050 -43.89672 11033 ft 367 kts 68°
2026-05-07 22:43 -23.07184 -43.87119 10829 ft 351 kts 68°
2026-05-07 22:43 -23.06363 -43.84691 10709 ft 335 kts 68°
2026-05-07 22:43 -23.05577 -43.82372 10574 ft 320 kts 67°
2026-05-07 22:43 -23.04820 -43.80146 10459 ft 307 kts 67°
2026-05-07 22:44 -23.04090 -43.78011 10299 ft 297 kts 66°
2026-05-07 22:44 -23.03378 -43.75928 10117 ft 291 kts 66°
2026-05-07 22:44 -23.02676 -43.73874 10060 ft 291 kts 66°
2026-05-07 22:44 -23.01973 -43.71815 9953 ft 291 kts 66°
2026-05-07 22:45 -23.01268 -43.69747 9526 ft 293 kts 66°
2026-05-07 22:45 -23.00564 -43.67680 9152 ft 291 kts 66°
2026-05-07 22:45 -22.99862 -43.65624 8773 ft 290 kts 66°
2026-05-07 22:45 -22.99162 -43.63577 8424 ft 289 kts 66°
2026-05-07 22:46 -22.98466 -43.61541 8048 ft 288 kts 66°
2026-05-07 22:46 -22.97773 -43.59511 7700 ft 286 kts 66°
2026-05-07 22:46 -22.97079 -43.57486 7337 ft 286 kts 66°
2026-05-07 22:46 -22.96390 -43.55473 7061 ft 283 kts 65°
2026-05-07 22:47 -22.95706 -43.53475 6671 ft 284 kts 66°
2026-05-07 22:47 -22.95020 -43.51468 6354 ft 283 kts 66°
2026-05-07 22:47 -22.94296 -43.49506 6083 ft 279 kts 62°
2026-05-07 22:47 -22.93508 -43.47601 5994 ft 272 kts 61°
2026-05-07 22:48 -22.92739 -43.45811 6007 ft 261 kts 60°
2026-05-07 22:48 -22.91980 -43.44064 6004 ft 250 kts 60°
2026-05-07 22:48 -22.91263 -43.42405 6002 ft 236 kts 60°
2026-05-07 22:48 -22.90590 -43.40833 5928 ft 224 kts 60°
2026-05-07 22:49 -22.89958 -43.39354 5785 ft 208 kts 60°
2026-05-07 22:49 -22.89376 -43.37988 5487 ft 196 kts 60°
2026-05-07 22:49 -22.88804 -43.36657 5082 ft 193 kts 60°
2026-05-07 22:49 -22.88248 -43.35337 4670 ft 192 kts 63°
2026-05-07 22:50 -22.87801 -43.33978 4243 ft 191 kts 66°
2026-05-07 22:50 -22.87366 -43.32627 3799 ft 189 kts 69°
2026-05-07 22:50 -22.86937 -43.31286 3335 ft 188 kts 68°
2026-05-07 22:50 -22.86512 -43.29960 3023 ft 184 kts 68°
2026-05-07 22:51 -22.86099 -43.28667 3007 ft 173 kts 68°
2026-05-07 22:51 -22.85741 -43.27542 2992 ft 147 kts 68°
2026-05-07 22:51 -22.85499 -43.26494 2994 ft 142 kts 83°
2026-05-07 22:51 -22.85604 -43.25444 2949 ft 137 kts 95°
2026-05-07 22:52 -22.85748 -43.24427 2605 ft 137 kts 95°
2026-05-07 22:52 -22.85891 -43.23408 2275 ft 136 kts 95°
2026-05-07 22:52 -22.86034 -43.22397 1922 ft 136 kts 96°
2026-05-07 22:52 -22.86176 -43.21384 1608 ft 134 kts 96°
2026-05-07 22:53 -22.86313 -43.20380 1178 ft 136 kts 96°
2026-05-07 22:53 -22.86457 -43.19380 925 ft 134 kts 100°
2026-05-07 22:53 -22.86666 -43.18437 765 ft 121 kts 105°
2026-05-07 22:53 -22.86951 -43.17537 624 ft 137 kts 112°
2026-05-07 22:54 -22.87483 -43.16737 605 ft 126 kts 141°
2026-05-07 22:54 -22.88350 -43.16427 504 ft 146 kts 178°
2026-05-07 22:54 -22.89450 -43.16402 354 ft 168 kts 174°
2026-05-07 22:54 -22.90568 -43.16320 52 ft 153 kts 175°
2026-05-07 22:55 -22.91421 -43.16267 18 ft 68 kts 176°
2026-05-07 22:55 -22.91598 -43.16272 18 ft 15 kts 228°
2026-05-07 22:55 -22.91550 -43.16357 18 ft 15 kts 317°
2026-05-07 22:55 -22.91481 -43.16425 19 ft 10 kts 323°
2026-05-07 22:56 -22.91402 -43.16436 20 ft 13 kts 355°
2026-05-07 22:56 -22.91352 -43.16485 20 ft 11 kts 292°
2026-05-07 22:56 -22.91288 -43.16511 21 ft 7 kts 348°
2026-05-07 22:56 -22.91279 -43.16556 20 ft 6 kts 266°
2026-05-07 22:57 -22.91280 -43.16575 20 ft 3 kts 266°
2026-05-07 22:57 -22.91280 -43.16580 21 ft 0 kts 266°